map of RUH home
RUH - Airport
Location
City:  Riyadh, Saudi Arabia
Name:King Khaled International Airport
ICAO:OERK
IATA:RUH

Details
Type:Airport (Aerodrome, Airfield)
Use:Public/Civil, International (customs port of entry)
Latitude:2457'46"N (24.962778)
Longitude:4642'29"E (46.708056)
Elevation:2049 ft (625 m)
Variation:3.00E (WMM2015 magnetic declination)
0.05 annual change
Runways:2
Longest:13796 × 197 ft (4205 × 60 m), paved

Time
Time Zone:UTC+3
Local Time:

Weather
METAR:OERK 192300Z 03003KT CAVOK 09/M03 Q1025 NOSIG
TAF:OERK 191000Z 1912/2018 03010KT 6000 NSC

Related Locations
Nearby:
Farthest:GMR: 12272 mi / 19749 km
Mangareva [Totegegie], Gambier Islands, PF

Find:

   beyond  
but within

Other Information
Maps:
NOTAMs:
Links:
Sources:

  
flag of Saudi Arabia   

Sectional Chart

Flight Planning
at skyvector.com

Satellite Image

Google Maps Satellite view

 

Copyright © 2004-2017 Karl L. Swartz. All rights reserved.
The Great Circle Mapper name and logo are trademarks of the Great Circle Mapper.
All other trademarks mentioned herein belong to their respective owners.
Please see credits for attibutions and further copyright information.

  Follow gcmap on Facebook Follow gcmap on Twitter Follow gcmap on Google+ GCmap on LinkedIn

hCard Microformat

Geo Microformat